User: anonymous   Login
Location: Unspecified
(0.0000°N, 0.0000°E)
Time: 13:42:53
(UTC+00:00)
Language:

USA 224 - Orbit

View from above orbital plane
View from above orbital plane
View from above satellite
View from above satellite

Ground track
Ground track

The orbit data is extracted from the following two-line orbital elements,

1 37348U 11002A   17267.88967468 0.00010000  00000-0  93966-4 0    09
2 37348  97.9009  18.8114 0521524 252.7368 107.2630 14.80712009    07
Epoch (UTC): 24 September 2017 21:21:07
Eccentricity: 0.0521524
inclination: 97.9009°
perigee height: 262 km
apogee height: 992 km
right ascension of ascending node: 18.8114°
argument of perigee: 252.7368°
revolutions per day: 14.80712009
mean anomaly at epoch: 107.2630°
orbit number at epoch: 0

The dashed part of the orbit path shows where the satellite is in the earth's shadow,  

DLR